This is the latest recevied weather packets stored in our database for station/object KD4UFD. If no packets are shown the sender has not sent any weather packets the latest 1 day(s).
| Time | Temp. | Humidity | Pressure | Rain* | Wind** | Luminosity | Snow |
|---|---|---|---|---|---|---|---|
| 1778033916 | 21.11° C | 53% | 1010.9 hPa | 0 mm | 0.45 m/s, 236° | 0 W/m² | - |
| 1778033612 | 21.11° C | 53% | 1011.1 hPa | 0 mm | 0.89 m/s, 163° | 0 W/m² | - |
| 1778033309 | 20.56° C | 53% | 1011.2 hPa | 0 mm | 0 m/s | 0 W/m² | - |
| 1778033007 | 20.56° C | 54% | 1010.9 hPa | 0 mm | 0 m/s | 0 W/m² | - |
| 1778032704 | 20.56° C | 53% | 1010.9 hPa | 0 mm | 0 m/s | 0 W/m² | - |
| 1778032402 | 20.56° C | 53% | 1011 hPa | 0 mm | 0 m/s | 0 W/m² | - |
| 1778032098 | 20.56° C | 54% | 1010.7 hPa | 0 mm | 0 m/s | 0 W/m² | - |
| 1778031795 | 21.11° C | 53% | 1010.6 hPa | 0 mm | 0 m/s | 0 W/m² | - |
| 1778031492 | 21.11° C | 52% | 1010.7 hPa | 0 mm | 0 m/s | 0 W/m² | - |
| 1778031189 | 21.11° C | 52% | 1010.6 hPa | 0 mm | 0.45 m/s, 239° | 0 W/m² | - |
| 1778030886 | 21.67° C | 51% | 1010.3 hPa | 0 mm | 0.89 m/s, 245° | 0 W/m² | - |
| 1778030582 | 21.67° C | 50% | 1010.2 hPa | 0 mm | 0.89 m/s, 262° | 0 W/m² | - |
| 1778030280 | 21.67° C | 50% | 1010.2 hPa | 0 mm | 0 m/s | 0 W/m² | - |
| 1778029976 | 22.22° C | 49% | 1009.8 hPa | 0 mm | 0 m/s | 0 W/m² | - |
| 1778029674 | 22.22° C | 48% | 1010 hPa | 0 mm | 1.79 m/s, 239° | 0 W/m² | - |
| 1778029371 | 22.22° C | 48% | 1010.3 hPa | 0 mm | 1.34 m/s, 233° | 0 W/m² | - |
| 1778029069 | 22.22° C | 48% | 1010 hPa | 0 mm | 1.34 m/s, 44° | 0 W/m² | - |
| 1778028765 | 22.22° C | 48% | 1010 hPa | 0 mm | 0.89 m/s, 221° | 0 W/m² | - |
| 1778028461 | 22.22° C | 47% | 1009.9 hPa | 0 mm | 0.45 m/s, 192° | 0 W/m² | - |
| 1778028159 | 22.22° C | 46% | 1010 hPa | 0 mm | 0.89 m/s, 229° | 0 W/m² | - |
| 1778027854 | 22.22° C | 47% | 1009.9 hPa | 0 mm | 0.45 m/s, 228° | 0 W/m² | - |
| 1778027551 | 22.22° C | 47% | 1010.2 hPa | 0 mm | 0.45 m/s, 230° | 0 W/m² | - |
| 1778027247 | 22.22° C | 47% | 1010.6 hPa | 0 mm | 0.45 m/s, 214° | 1 W/m² | - |
| 1778026944 | 22.22° C | 48% | 1010.4 hPa | 0 mm | 0 m/s | 3 W/m² | - |
| 1778026639 | 22.22° C | 45% | 1010.5 hPa | 0 mm | 1.79 m/s, 234° | 4 W/m² | - |
* Rain latest hour (hover to see other rain measurements)
** Current wind speed in m/s (hover to see current wind gust speed)